Location: Newark
(22.3060°N, 114.2134°E)
Time: 05:53:14
(UTC+00:00)

Explorer 11/Cluster Stage 4 - Pass Details

Date: 03 August 2021
Orbit: 467 x 1256 km, 28.8° (Epoch: 24 September)

Event Time Altitude Azimuth Distance (km) Brightness Sun altitude
Rises 04:28:56 0° 289° (WNW) 4,195 10.3 85.1°
Reaches altitude 10° 04:31:55 10° 291° (WNW) 3,223 9.9 85.1°
Maximum altitude 04:40:09 72° 15° (NNE) 1,241 9.1 84.5°
Drops below altitude 10° 04:47:26 10° 99° (E) 2,880 9.6 83.5°
Sets 04:49:59 0° 101° (E) 3,729 10.0 83.1°
